Clarksville, TN

8:42 PM CST on January 21, 2017 (GMT -0600)
Clarksville

Weather History for KCKV - March, 2014

Change the Weather History Date:

Thursday, March 20, 2014

  Actual Average Record
Temperature  
Mean Temperature 46 °F 50 °F  
Max Temperature 61 °F 62 °F 83 °F (2012)
Min Temperature 30 °F 38 °F 11 °F (1965)
Degree Days  
Heating Degree Days 19 15  
Month to date heating degree days 443 359  
Since 1 July heating degree days 3925 3544  
Cooling Degree Days 0 0  
Month to date cooling degree days 0 0  
Year to date cooling degree days 2  
Moisture  
Dew Point 30 °F    
Average Humidity 64    
Maximum Humidity 100    
Minimum Humidity 27    
Precipitation  
Precipitation 0.00 in 0.14 in 1.60 in (1979)
Month to date precipitation 1.78 2.42  
Year to date precipitation 9.90  
Sea Level Pressure  
Sea Level Pressure 30.15 in    
Wind  
Wind Speed 2 mph (NW)    
Max Wind Speed 9 mph    
Max Gust Speed 12 mph    
Visibility 7 miles    
Events      
T = Trace of Precipitation, MM = Missing Value Source: NWS Daily Summary

Daily Weather History Graph

Daily Weather History Graph

Search for Another Location

Airport or City:

Trip Planner

Search our weather history database for the weather conditions in past years. The results will help you decide how hot, cold, wet, or windy it might be!

Date:

Astronomy

Mar. 20, 2014 Rise Set
Actual Time 6:53 AM CDT 7:01 PM CDT
Civil Twilight 6:27 AM CDT 7:27 PM CDT
Nautical Twilight 5:57 AM CDT 7:57 PM CDT
Astronomical Twilight 5:26 AM CDT 8:27 PM CDT
Moon 11:14 PM CDT (3/20) 9:05 AM CDT (3/20)
Length of Visible Light 12h 59m
Length of Day
12h 08m
Waning Gibbous, 84% of the Moon is Illuminated
Mar 20
Waning Gibbous
Mar 23
Last Quarter
Mar 30
New
Apr 7
First Quarter
Apr 15
Full

Hourly Weather History & Observations

Time (CDT) Temp. Windchill Dew Point Humidity Pressure Visibility Wind Dir Wind Speed Gust Speed Precip Events Conditions
12:52 AM 41.0 °F 39.0 °F 34.0 °F 76% 30.15 in 8.0 mi WNW 3.5 mph - N/A   Clear
1:52 AM 37.9 °F - 32.0 °F 79% 30.16 in 7.0 mi Calm Calm - N/A   Clear
2:52 AM 37.9 °F 35.5 °F 33.1 °F 83% 30.16 in 6.0 mi WNW 3.5 mph - N/A   Haze
3:52 AM 35.1 °F 32.2 °F 30.9 °F 85% 30.16 in 4.0 mi West 3.5 mph - N/A   Clear
4:52 AM 32.0 °F - 30.0 °F 92% 30.16 in 4.0 mi Calm Calm - N/A   Clear
5:52 AM 30.9 °F 27.5 °F 30.0 °F 96% 30.18 in 3.0 mi SW 3.5 mph - N/A   Clear
6:21 AM 30.0 °F - 28.0 °F 92% 30.17 in 2.0 mi Calm Calm - N/A   Clear
6:44 AM 30.9 °F - 28.9 °F 92% 30.18 in 3.0 mi Calm Calm - N/A   Clear
6:52 AM 30.0 °F - 28.9 °F 96% 30.19 in 2.5 mi Calm Calm - N/A   Clear
7:34 AM 30.9 °F - 28.9 °F 92% 30.19 in 3.0 mi Calm Calm - N/A   Clear
7:52 AM 32.0 °F - 30.0 °F 92% 30.19 in 2.0 mi Calm Calm - N/A   Clear
8:04 AM 34.0 °F - 32.0 °F 92% 30.19 in 1.8 mi Calm Calm - N/A   Clear
8:20 AM 36.0 °F - 34.0 °F 93% 30.19 in 2.0 mi Calm Calm - N/A   Clear
8:43 AM 37.9 °F - 35.1 °F 89% 30.20 in 3.0 mi Calm Calm - N/A   Clear
8:52 AM 39.9 °F - 36.0 °F 86% 30.21 in 3.0 mi Calm Calm - N/A   Clear
9:52 AM 45.0 °F - 33.1 °F 63% 30.21 in 8.0 mi Calm Calm - N/A   Clear
10:52 AM 48.9 °F - 32.0 °F 52% 30.21 in 10.0 mi Calm Calm - N/A   Clear
11:52 AM 53.1 °F - 28.9 °F 40% 30.19 in 10.0 mi NE 5.8 mph - N/A   Clear
12:52 PM 55.9 °F - 28.9 °F 36% 30.17 in 10.0 mi North 8.1 mph - N/A   Clear
1:52 PM 57.9 °F - 28.0 °F 32% 30.14 in 10.0 mi West 5.8 mph - N/A   Clear
2:52 PM 59.0 °F - 28.0 °F 31% 30.11 in 10.0 mi NNE 3.5 mph - N/A   Clear
3:52 PM 59.0 °F - 26.1 °F 28% 30.09 in 10.0 mi Calm Calm - N/A   Clear
4:52 PM 61.0 °F - 26.1 °F 26% 30.08 in 10.0 mi ENE 3.5 mph - N/A   Clear
5:52 PM 61.0 °F - 26.1 °F 26% 30.07 in 10.0 mi Calm Calm - N/A   Clear
6:52 PM 57.9 °F - 24.1 °F 27% 30.07 in 10.0 mi WSW 5.8 mph - N/A   Clear
7:52 PM 57.0 °F - 24.1 °F 28% 30.07 in 10.0 mi Calm Calm - N/A   Clear
8:52 PM 48.0 °F - 28.0 °F 46% 30.08 in 10.0 mi Calm Calm - N/A   Clear
9:52 PM 46.9 °F - 28.0 °F 48% 30.08 in 10.0 mi SE 3.5 mph - N/A   Clear
10:52 PM 43.0 °F - 28.9 °F 58% 30.09 in 10.0 mi Calm Calm - N/A   Clear
11:52 PM 41.0 °F - 28.9 °F 62% 30.08 in 10.0 mi Calm Calm - N/A   Clear